Location: Artiguedieu
(43.5000°N, 0.5454°E)
Time: 13:16:41
(UTC+00:00)

Vanguard 1 - Pass Details

Date: 28 July 2021
Orbit: 652 x 3831 km, 34.3° (Epoch: 23 September)

Event Time Altitude Azimuth Distance (km) Brightness Sun altitude
Rises 16:23:23 0° 271° (W) 4,574 14.7 31.0°
Reaches altitude 10° 16:26:12 10° 262° (W) 3,933 14.8 30.5°
Maximum altitude 16:35:58 37° 200° (SSW) 3,332 13.3 28.7°
Drops below altitude 10° 16:51:59 10° 143° (SE) 6,368 13.9 25.8°
Sets 16:58:15 0° 136° (SE) 7,712 14.2 24.7°
